User: anonymous   Login
Location: Unspecified
(0.0000°N, 0.0000°E)
Time: 07:55:58
(UTC+00:00)
Language:

COMSATBw-1 - Orbit

View from above orbital plane
View from above orbital plane
View from above satellite
View from above satellite

Ground track
Ground track

The orbit data is extracted from the following two-line orbital elements,

1 35943U 09054B   17289.90071580 -.00000001 +00000-0 +00000-0 0  9991
2 35943 000.0606 082.3920 0002488 152.7859 177.6833 01.00272017029568
Epoch (UTC): 16 October 2017 21:37:01
Eccentricity: 0.0002488
inclination: 0.0606°
perigee height: 35775 km
apogee height: 35796 km
right ascension of ascending node: 82.3920°
argument of perigee: 152.7859°
revolutions per day: 1.00272017
mean anomaly at epoch: 177.6833°
orbit number at epoch: 2956

The dashed part of the orbit path shows where the satellite is in the earth's shadow,  

DLR